Volver al catálogo

STARLINK-11254

ActivoComunicacionesVLEO
NORAD 60731·PAYLOAD·🇺🇸 United States

Lanzado Aug 28, 2024 desde Cape Canaveral Space Force Station

Loading…

Próximos Pases (próximas 24 horas)

TLE

ActualizadoSource: CelesTrak SupGP

Época: Sep 14, 2026, 21:26 UTC

1 60731C 24152M   26257.89354167  .00066916  00000+0  55118-3 0  2573
2 60731  53.1573 263.2386 0001034 101.3338 339.0769 15.69677654    14

Sigue STARLINK-11254 en tiempo real con AllMySat

Download on the App Store